Wind_Speed
12 12 13 12 12 12 12 12 12 12 13 13 12 12 12 12 12 12 12 11 11 11 11 11 11 11 11 12 13 13 13 13 13 13 13 12 12 12 13 13 12 12 11 11
12 12 12 12 12 13 13 13 12 12 13 13 13 13 13 13 13 13 12 12 12 12 12 12 12 12 12 13 14 14 14 14 14 13 13 13 13 13 13 13 13 13 13 12
12 11 11 11 12 13 13 13 13 13 14 13 14 14 14 14 13 13 13 13 12 12 12 12 12 12 13 13 14 14 14 14 13 13 14 14 14 14 14 14 15 15 15 14
11 11 11 11 12 12 12 12 13 13 14 14 14 14 15 14 14 13 13 13 12 13 13 13 13 13 13 13 13 14 14 15 14 15 15 15 14 14 15 15 15 15 16 15
10 10 10 11 12 12 12 12 13 14 14 15 14 15 14 15 14 14 13 13 13 14 13 13 13 14 14 14 14 15 15 16 16 15 15 15 15 15 16 16 16 16 16 16
10 10 11 11 11 12 12 13 13 14 15 16 14 14 13 14 14 14 15 14 14 14 13 13 14 14 15 15 16 16 16 16 16 16 16 16 16 16 17 17 17 17 17 17
11 11 11 11 11 12 13 12 13 14 15 15 14 14 13 13 14 15 16 16 15 14 14 14 14 15 15 15 16 17 17 16 17 17 17 16 16 17 17 18 18 18 18 18
13 13 13 13 13 12 12 13 13 14 14 14 14 14 13 13 13 14 15 15 15 15 15 15 15 15 16 16 16 17 17 17 17 17 16 17 17 17 17 18 18 18 19 19
14 13 13 13 13 13 13 13 13 14 15 15 15 15 14 14 14 14 15 16 16 15 15 15 16 16 16 17 17 17 18 17 17 17 17 17 17 17 18 18 19 19 19 20
14 14 13 14 14 15 14 14 14 15 16 16 16 15 16 15 15 15 16 16 16 16 16 16 17 17 17 18 18 18 18 18 18 18 18 18 18 18 18 19 20 20 20 21
14 15 14 14 15 15 15 15 16 16 17 17 17 15 16 16 15 16 17 17 17 17 17 18 18 18 18 18 18 19 18 18 19 19 19 19 19 20 20 20 20 20 21 21
15 16 15 15 15 16 16 16 17 17 18 18 18 16 16 16 16 17 17 18 18 18 18 18 18 19 19 19 19 19 18 19 19 19 20 20 20 21 21 21 21 21 21 21
15 15 16 16 16 17 17 18 18 19 19 19 19 18 18 17 17 17 18 19 19 19 19 19 19 19 19 19 19 19 19 19 19 20 20 21 21 21 21 21 21 21 21 21
17 16 16 16 17 17 18 19 19 20 20 20 19 18 18 19 19 18 19 19 20 21 20 20 21 20 20 20 20 20 20 20 20 21 21 22 22 22 22 22 22 22 21 21
17 17 17 17 18 18 19 20 21 21 21 21 20 20 19 20 20 20 20 20 21 22 22 22 22 22 21 21 21 21 21 22 22 22 22 23 23 24 24 23 22 22 22 23
19 18 18 18 19 20 20 19 21 22 22 22 22 21 20 22 21 22 22 22 23 23 23 23 22 22 22 22 22 22 23 23 23 23 23 24 25 25 24 24 24 23 23 23
19 19 19 19 20 21 20 18 20 21 22 22 23 22 22 23 22 22 23 24 24 24 25 24 24 23 23 23 23 23 23 24 25 25 25 26 26 26 25 26 25 24 24 24
19 19 20 20 20 21 19 19 20 21 21 21 22 23 23 23 23 23 24 25 25 25 25 25 25 25 24 24 25 25 25 25 26 26 27 27 27 27 27 27 27 27 26 26
19 20 21 21 21 20 20 20 21 21 20 21 22 23 23 23 23 23 24 25 26 26 27 26 26 26 27 27 26 26 27 27 27 27 28 28 28 28 28 28 28 28 28 27
20 20 21 21 22 21 20 21 22 22 21 21 21 23 24 24 24 24 24 25 26 26 27 27 27 27 27 27 27 27 27 28 28 28 28 29 29 29 29 29 29 29 28 28
20 21 22 22 22 22 21 21 22 22 21 22 22 22 23 24 24 24 25 26 27 27 27 27 27 28 28 28 28 28 28 28 29 29 29 29 30 30 30 29 28 28 28 27
21 22 23 23 23 22 21 21 22 22 22 23 23 23 23 23 24 24 25 26 27 27 27 28 28 28 29 29 29 29 29 29 29 30 30 29 30 30 30 29 29 29 29 28
22 23 23 24 24 23 23 22 22 23 23 23 23 23 23 24 24 25 26 26 26 27 28 28 29 30 30 30 30 30 30 30 30 30 30 30 30 30 30 30 29 30 30 30
23 24 23 24 24 24 24 24 24 24 24 25 25 25 25 25 25 26 26 26 27 28 29 29 29 30 30 30 30 31 31 31 30 29 29 30 30 31 31 30 30 31 31 31
23 24 25 25 25 25 25 25 26 26 26 26 27 28 27 27 27 27 27 28 29 29 30 30 31 31 30 30 30 30 30 30 30 30 29 29 29 30 30 31 30 31 31 31
24 25 26 26 26 26 26 27 28 28 28 28 29 29 28 28 28 29 29 28 29 30 31 31 31 31 30 30 30 30 31 31 30 30 30 29 29 30 30 30 29 29 29 29
Wind_Direction
251 251 251 254 254 251 251 251 251 248 250 252 253 253 252 253 256 257 257 259 261 259 259 262 263 268 266 270 273 274 268 268 267 265 266 265 264 262 260 260 260 262 263 267
248 250 254 255 253 250 249 250 249 248 252 254 255 255 253 253 255 257 258 258 259 260 261 263 265 267 270 274 275 273 267 267 264 262 263 263 262 262 260 259 260 261 261 265
251 252 253 253 251 251 251 250 250 250 252 256 256 254 253 252 252 255 257 259 259 261 264 265 265 267 271 274 274 270 270 268 265 264 264 264 263 263 262 260 259 262 264 264
252 254 254 255 254 253 253 253 254 253 253 255 257 256 252 251 252 255 258 255 257 261 264 266 267 268 270 272 272 271 270 269 267 265 264 264 264 263 263 264 263 264 262 262
254 256 259 260 257 254 256 257 257 255 255 258 260 261 253 251 254 255 259 259 261 262 265 267 268 269 269 270 272 273 273 271 269 264 264 263 263 262 263 265 265 264 262 263
258 260 262 264 259 259 258 257 258 257 257 259 261 261 255 251 253 256 259 262 265 266 269 270 271 271 271 270 271 272 275 275 274 268 267 266 264 263 264 265 265 264 263 264
257 258 261 262 262 263 263 261 258 257 258 261 263 264 261 257 257 258 262 266 268 267 269 270 272 272 273 274 275 275 278 277 276 272 268 267 265 264 265 266 266 266 264 265
257 257 259 262 264 264 266 266 262 261 260 262 264 264 264 264 260 261 264 265 266 269 273 276 277 274 274 274 276 277 277 275 275 275 273 270 268 267 267 267 267 267 266 265
261 262 262 263 265 264 265 267 266 265 264 264 263 263 262 266 264 262 265 267 268 271 274 278 277 275 273 273 275 276 276 273 272 274 276 273 268 267 267 267 268 269 267 265
262 264 264 264 265 264 265 266 264 265 267 267 266 264 265 266 264 263 267 269 270 272 275 278 278 275 273 273 272 272 273 274 272 272 272 269 265 266 267 269 269 270 269 267
265 264 263 264 264 264 264 264 263 266 268 270 268 266 269 270 268 268 269 270 272 272 274 276 277 277 275 274 273 272 273 272 271 271 268 267 266 266 267 269 269 270 270 268
269 266 264 264 265 265 262 262 264 265 268 270 272 271 272 273 269 269 269 270 271 273 275 275 275 276 275 274 273 271 271 272 271 267 266 266 266 267 268 269 270 271 270 269
272 270 269 266 262 262 261 262 265 266 267 269 272 275 276 274 271 271 271 272 273 275 275 275 276 277 277 275 274 271 270 270 269 267 266 267 266 268 269 270 271 271 269 268
271 273 273 269 265 263 262 264 266 266 267 268 269 274 276 275 273 273 272 272 274 276 276 276 277 278 276 274 273 274 273 270 269 268 268 266 267 270 271 271 271 269 267 267
273 272 271 269 269 267 266 266 266 266 267 269 269 271 274 272 273 273 273 274 275 277 277 279 279 277 276 275 274 273 272 270 268 267 268 268 268 270 271 272 271 269 268 268
275 273 269 268 271 271 270 270 268 267 268 269 271 271 272 272 274 273 274 274 275 277 278 279 277 277 276 277 274 271 270 270 269 268 268 268 269 269 268 269 270 271 270 269
272 272 270 269 271 272 271 272 271 269 268 269 270 271 272 273 273 274 274 274 275 277 278 279 278 277 277 276 275 272 270 269 269 268 268 268 268 267 266 267 268 268 269 270
273 271 272 272 272 272 273 273 275 274 271 270 272 273 272 273 272 272 274 275 275 275 278 278 277 277 277 277 275 273 270 269 269 269 269 269 269 267 266 265 266 267 268 268
273 272 274 273 271 273 273 275 276 276 273 273 273 274 274 273 273 274 276 277 277 276 277 279 279 276 275 275 276 275 272 270 270 270 270 269 269 267 265 266 266 266 267 268
274 274 273 272 271 274 275 277 276 276 275 275 274 275 275 276 277 278 277 277 279 278 277 278 279 278 277 277 277 277 276 274 273 273 273 270 268 267 266 266 265 265 266 268
275 276 275 274 273 274 276 278 277 276 275 275 276 276 277 278 280 280 278 279 280 280 279 279 280 279 279 279 278 278 277 276 275 274 274 271 268 267 267 266 265 265 265 266
277 277 276 275 275 276 277 278 277 276 275 276 277 278 277 278 280 281 282 282 281 282 282 281 280 280 281 280 280 278 277 277 276 274 274 273 269 268 268 267 265 264 264 266
276 277 278 276 275 277 276 277 276 276 276 276 278 279 279 279 281 282 283 283 283 283 283 283 282 281 282 282 281 280 279 278 276 275 274 273 272 270 269 269 267 266 266 266
275 276 277 277 275 276 276 275 275 275 276 276 277 280 280 280 281 282 282 282 282 284 284 285 284 283 283 283 282 281 279 279 278 276 275 274 273 270 269 268 268 268 267 267
275 274 275 275 275 274 274 274 275 275 274 274 276 278 281 280 281 281 282 282 282 284 285 285 285 284 283 283 283 282 280 278 277 276 275 273 272 271 270 269 269 268 268 268
276 276 275 274 274 275 275 274 275 275 274 275 276 279 281 281 282 282 282 282 284 285 286 287 286 284 284 284 283 282 280 279 277 276 275 274 273 272 271 270 268 267 268 269
Height
5808 5810 5810 5812 5813 5815 5816 5817 5818 5819 5820 5821 5822 5823 5824 5824 5825 5826 5826 5827 5827 5827 5827 5827 5827 5828 5828 5828 5828 5828 5828 5828 5828 5828 5828 5828 5828 5828 5828 5829 5829 5829 5829 5830
5806 5807 5808 5809 5810 5811 5813 5814 5815 5816 5817 5818 5819 5820 5821 5821 5822 5823 5823 5824 5824 5824 5824 5824 5824 5825 5825 5825 5824 5824 5824 5824 5824 5824 5825 5825 5825 5825 5825 5826 5826 5826 5826 5827
5803 5805 5805 5806 5807 5808 5809 5811 5812 5813 5814 5815 5816 5818 5818 5818 5819 5820 5820 5820 5821 5821 5821 5821 5821 5822 5822 5821 5821 5821 5821 5820 5820 5821 5821 5821 5821 5821 5822 5822 5823 5823 5823 5823
5800 5802 5802 5803 5804 5805 5807 5808 5809 5810 5811 5812 5813 5814 5815 5815 5816 5817 5817 5818 5818 5818 5818 5818 5818 5818 5818 5818 5818 5817 5817 5817 5816 5817 5817 5817 5817 5818 5818 5818 5819 5819 5819 5819
5798 5799 5800 5801 5802 5803 5804 5805 5806 5807 5807 5808 5809 5810 5812 5812 5812 5814 5814 5814 5814 5814 5814 5814 5814 5814 5814 5814 5814 5814 5813 5813 5812 5812 5812 5813 5813 5813 5813 5814 5814 5814 5815 5815
5796 5797 5797 5798 5799 5800 5801 5802 5802 5803 5804 5805 5806 5807 5808 5809 5810 5810 5810 5810 5810 5811 5811 5810 5810 5810 5810 5810 5810 5810 5809 5809 5808 5808 5808 5808 5808 5808 5809 5809 5809 5809 5810 5810
5793 5794 5794 5795 5796 5797 5798 5799 5799 5799 5800 5801 5802 5802 5805 5805 5806 5806 5807 5807 5807 5807 5807 5807 5806 5806 5806 5806 5806 5805 5805 5804 5804 5803 5803 5803 5803 5803 5804 5804 5804 5804 5804 5805
5791 5792 5792 5792 5793 5794 5794 5795 5797 5797 5797 5798 5798 5799 5801 5801 5802 5802 5802 5803 5803 5803 5803 5803 5802 5802 5802 5801 5801 5801 5800 5799 5799 5799 5798 5798 5798 5798 5799 5798 5798 5799 5799 5799
5788 5789 5789 5789 5790 5791 5791 5792 5793 5793 5793 5794 5795 5796 5797 5797 5798 5798 5799 5799 5799 5799 5799 5798 5798 5797 5797 5797 5796 5796 5795 5794 5794 5794 5793 5793 5793 5793 5793 5793 5793 5793 5793 5793
5785 5786 5786 5787 5787 5788 5789 5789 5789 5789 5789 5790 5791 5792 5793 5793 5794 5794 5794 5794 5794 5794 5794 5793 5793 5792 5792 5792 5791 5790 5790 5789 5789 5789 5788 5788 5788 5788 5787 5787 5787 5787 5787 5787
5781 5782 5783 5783 5784 5784 5785 5785 5785 5786 5786 5786 5787 5791 5789 5789 5789 5790 5790 5790 5790 5789 5789 5789 5788 5788 5787 5787 5786 5785 5784 5784 5783 5783 5783 5782 5782 5782 5782 5781 5781 5780 5780 5780
5777 5778 5778 5779 5780 5780 5780 5781 5781 5782 5782 5782 5783 5788 5785 5785 5785 5785 5785 5785 5784 5784 5784 5783 5783 5782 5781 5781 5780 5779 5778 5778 5777 5777 5777 5777 5776 5776 5775 5775 5775 5774 5774 5774
5774 5774 5774 5775 5777 5776 5776 5776 5776 5777 5777 5777 5778 5783 5780 5780 5779 5779 5779 5779 5779 5779 5778 5778 5777 5776 5775 5774 5774 5773 5772 5772 5771 5771 5771 5771 5771 5770 5769 5769 5768 5768 5767 5767
5769 5770 5771 5771 5770 5770 5771 5771 5771 5772 5772 5772 5774 5775 5775 5775 5774 5774 5774 5774 5774 5773 5773 5772 5771 5770 5769 5768 5767 5767 5766 5765 5765 5765 5764 5764 5764 5764 5763 5763 5762 5761 5761 5761
5764 5765 5765 5765 5765 5765 5765 5766 5766 5766 5766 5767 5769 5769 5770 5769 5769 5769 5768 5768 5767 5767 5766 5765 5765 5764 5763 5762 5761 5760 5760 5759 5759 5758 5758 5758 5758 5757 5757 5756 5755 5755 5754 5754
5759 5759 5760 5760 5760 5759 5759 5760 5760 5760 5761 5761 5762 5763 5764 5763 5763 5763 5762 5762 5761 5760 5760 5759 5758 5757 5756 5755 5754 5754 5753 5752 5752 5751 5751 5751 5750 5750 5750 5749 5749 5748 5748 5748
5754 5754 5754 5755 5754 5754 5754 5755 5755 5755 5755 5756 5756 5758 5757 5757 5756 5756 5755 5755 5754 5753 5753 5752 5751 5750 5749 5748 5747 5747 5746 5745 5745 5744 5744 5743 5743 5742 5742 5742 5742 5742 5741 5741
5749 5749 5749 5749 5750 5748 5752 5750 5750 5749 5749 5750 5750 5750 5750 5750 5750 5749 5748 5748 5747 5746 5745 5744 5743 5742 5742 5741 5740 5739 5738 5738 5737 5736 5736 5735 5735 5735 5734 5734 5734 5734 5734 5734
5744 5744 5743 5743 5743 5743 5745 5744 5744 5744 5744 5744 5744 5744 5743 5743 5743 5743 5742 5740 5739 5739 5738 5737 5736 5735 5734 5733 5732 5731 5731 5730 5729 5729 5728 5727 5727 5726 5726 5726 5726 5726 5726 5726
5739 5738 5738 5738 5737 5738 5740 5739 5738 5739 5738 5738 5737 5737 5737 5736 5736 5737 5735 5734 5732 5731 5730 5729 5728 5727 5726 5725 5724 5723 5722 5722 5721 5721 5720 5719 5718 5718 5718 5717 5717 5717 5717 5717
5733 5733 5733 5732 5731 5732 5733 5732 5732 5733 5733 5732 5731 5730 5730 5729 5729 5729 5727 5726 5725 5724 5723 5722 5721 5720 5718 5717 5716 5715 5714 5713 5712 5711 5710 5710 5709 5709 5709 5709 5709 5709 5709 5709
5727 5727 5726 5726 5725 5728 5726 5725 5726 5726 5725 5724 5724 5723 5723 5723 5722 5721 5720 5718 5717 5716 5715 5714 5713 5711 5710 5708 5707 5706 5705 5704 5703 5702 5701 5701 5700 5700 5700 5700 5700 5700 5700 5700
5721 5722 5721 5721 5722 5720 5719 5719 5719 5718 5718 5717 5717 5716 5715 5715 5714 5713 5712 5711 5709 5708 5707 5705 5704 5703 5701 5700 5698 5697 5696 5695 5694 5693 5692 5691 5691 5691 5690 5690 5690 5691 5691 5691
5715 5714 5714 5713 5713 5713 5712 5712 5711 5711 5711 5710 5710 5709 5708 5707 5706 5705 5704 5703 5702 5700 5698 5697 5695 5694 5692 5691 5689 5688 5687 5685 5684 5683 5683 5682 5682 5681 5681 5681 5681 5682 5682 5682
5708 5707 5706 5706 5706 5705 5705 5704 5704 5703 5703 5702 5702 5701 5700 5700 5699 5697 5696 5695 5693 5691 5690 5688 5686 5685 5683 5682 5680 5679 5677 5676 5675 5674 5673 5673 5672 5672 5672 5672 5672 5672 5672 5672
5701 5700 5699 5698 5698 5697 5697 5696 5696 5695 5695 5694 5694 5693 5692 5691 5690 5689 5687 5686 5684 5683 5681 5679 5677 5675 5674 5672 5671 5669 5668 5667 5666 5665 5664 5664 5663 5663 5662 5662 5662 5662 5663 5663